| time (UTC) | temp F | wind direction | speed MPH | gust MPH | rain 1hr in | rain 24hr in | rain mn in | humidity % | barometer mb |
| 20260831033249 | 0 | 204 | 2.0 | 7.0 | 0.00 | 0.00 | 0.00 | 1017.6 | |
| 20260831032744 | 0 | 139 | 3.0 | 6.0 | 0.00 | 0.00 | 0.00 | 1017.5 | |
| 20260831032239 | 0 | 204 | 3.0 | 9.0 | 0.00 | 0.00 | 0.00 | 1017.6 | |
| 20260831031734 | 0 | 238 | 1.0 | 5.0 | 0.00 | 0.00 | 0.00 | 1017.3 | |
| 20260831031229 | 0 | 202 | 3.0 | 7.0 | 0.00 | 0.00 | 0.00 | 1017.3 | |
| 20260831030728 | 0 | 193 | 0.0 | 0.0 | 0.00 | 0.00 | 0.00 | 1017.4 | |
| 20260831030227 | 0 | 111 | 2.0 | 4.0 | 0.00 | 0.00 | 0.00 | 1017.4 | |
| 20260831025726 | 0 | 0.0 | 0.0 | 0.00 | 0.00 | 0.00 | 1017.2 | ||
| 20260831025221 | 0 | 0.0 | 0.0 | 0.00 | 0.00 | 0.00 | 1017.2 | ||
| 20260831024717 | 0 | 0.0 | 0.0 | 0.00 | 0.00 | 0.00 | 1017.1 | ||
| 20260831024215 | 0 | 0.0 | 0.0 | 0.00 | 0.00 | 0.00 | 1016.8 | ||
| 20260831023714 | 0 | 0.0 | 0.0 | 0.00 | 0.00 | 0.00 | 1017.1 | ||
| 20260831023214 | 0 | 0.0 | 0.0 | 0.00 | 0.00 | 0.00 | 1017.0 | ||
| 20260831022709 | 0 | 0.0 | 0.0 | 0.00 | 0.00 | 0.00 | 1016.8 | ||
| 20260831022203 | 0 | 0.0 | 0.0 | 0.00 | 0.00 | 0.00 | 1016.6 | ||
| 20260831021703 | 0 | 0.0 | 0.0 | 0.00 | 0.00 | 0.00 | 1016.4 | ||
| 20260831021158 | 0 | 0.0 | 0.0 | 0.00 | 0.00 | 0.00 | 1016.2 | ||
| 20260831020654 | 0 | 0.0 | 0.0 | 0.00 | 0.00 | 0.00 | 1016.2 | ||
| 20260831020153 | 0 | 0.0 | 0.0 | 0.00 | 0.00 | 0.00 | 1016.2 | ||
| 20260831015649 | 0 | 0.0 | 0.0 | 0.00 | 0.00 | 0.00 | 1016.1 | ||
| 20260831015149 | 0 | 0.0 | 0.0 | 0.00 | 0.00 | 0.00 | 1016.1 | ||
| 20260831014644 | 0 | 0.0 | 0.0 | 0.00 | 0.00 | 0.00 | 1016.0 | ||
| 20260831014139 | 0 | 0.0 | 0.0 | 0.00 | 0.00 | 0.00 | 1016.1 | ||
| 20260831013636 | 0 | 0.0 | 0.0 | 0.00 | 0.00 | 0.00 | 1015.8 | ||
| 20260831013135 | 0 | 0.0 | 0.0 | 0.00 | 0.00 | 0.00 | 1015.7 | ||
| 20260831012630 | 0 | 0.0 | 0.0 | 0.00 | 0.00 | 0.00 | 1015.7 | ||
| 20260831012125 | 0 | 0.0 | 0.0 | 0.00 | 0.00 | 0.00 | 1015.8 | ||
| 20260831011624 | 0 | 0.0 | 0.0 | 0.00 | 0.00 | 0.00 | 1015.5 | ||
| 20260831011120 | 0 | 0.0 | 0.0 | 0.00 | 0.00 | 0.00 | 1015.6 | ||
| 20260831010616 | 0 | 0.0 | 0.0 | 0.00 | 0.00 | 0.00 | 1015.6 | ||
| 20260831010112 | 0 | 0.0 | 0.0 | 0.00 | 0.00 | 0.00 | 1015.6 | ||
| 20260831005611 | 0 | 0.0 | 0.0 | 0.00 | 0.00 | 0.00 | 1015.7 | ||
| 20260831005106 | 0 | 0.0 | 0.0 | 0.00 | 0.00 | 0.00 | 1015.5 | ||
| 20260831004602 | 0 | 0.0 | 0.0 | 0.00 | 0.00 | 0.00 | 1015.7 | ||
| 20260831004057 | 0 | 0.0 | 0.0 | 0.00 | 0.00 | 0.00 | 1015.6 | ||
| 20260831003554 | 0 | 178 | 2.0 | 3.0 | 0.00 | 0.00 | 0.00 | 1015.5 | |
| 20260831003049 | 0 | 178 | 2.0 | 3.0 | 0.00 | 0.00 | 0.00 | 1015.7 | |
| 20260831002548 | 0 | 178 | 2.0 | 3.0 | 0.00 | 0.00 | 0.00 | 1015.7 | |
| 20260831002043 | 0 | 178 | 2.0 | 3.0 | 0.00 | 0.00 | 0.00 | 1015.5 | |
| 20260831001538 | 0 | 178 | 2.0 | 3.0 | 0.00 | 0.00 | 0.00 | 1015.6 | |
| 20260831001035 | 0 | 178 | 2.0 | 3.0 | 0.00 | 0.00 | 0.00 | 1015.7 | |
| 20260831000531 | 0 | 178 | 2.0 | 3.0 | 0.00 | 0.00 | 0.00 | 1015.5 | |
| 20260831000030 | 0 | 178 | 2.0 | 3.0 | 0.00 | 0.00 | 0.00 | 1015.6 | |
| 20260830235524 | 0 | 178 | 2.0 | 3.0 | 0.00 | 0.00 | 0.00 | 1015.6 | |
| 20260830235019 | 0 | 178 | 2.0 | 3.0 | 0.00 | 0.00 | 0.00 | 1015.6 | |
| 20260830234514 | 0 | 178 | 2.0 | 3.0 | 0.00 | 0.00 | 0.00 | 1015.7 | |
| 20260830234009 | 0 | 178 | 2.0 | 3.0 | 0.00 | 0.00 | 0.00 | 1015.6 | |
| 20260830233505 | 0 | 232 | 2.0 | 3.0 | 0.00 | 0.00 | 0.00 | 1015.6 | |
| 20260830233001 | 0 | 232 | 2.0 | 3.0 | 0.00 | 0.00 | 0.00 | 1015.6 | |
| 20260830232456 | 0 | 232 | 2.0 | 3.0 | 0.00 | 0.00 | 0.00 | 1015.6 | |
| 20260830231952 | 0 | 232 | 2.0 | 3.0 | 0.00 | 0.00 | 0.00 | 1015.7 | |
| 20260830231448 | 0 | 232 | 2.0 | 3.0 | 0.00 | 0.00 | 0.00 | 1015.6 | |
| 20260830230947 | 0 | 132 | 3.0 | 3.0 | 0.00 | 0.00 | 0.00 | 1015.5 | |
| 20260830230442 | 0 | 167 | 2.0 | 3.0 | 0.00 | 0.00 | 0.00 | 1015.7 | |
| 20260830225941 | 0 | 122 | 3.0 | 5.0 | 0.00 | 0.00 | 0.00 | 1015.4 | |
| 20260830225438 | 0 | 154 | 2.0 | 6.0 | 0.00 | 0.00 | 0.00 | 1015.6 | |
| 20260830224937 | 0 | 196 | 3.0 | 3.0 | 0.00 | 0.00 | 0.00 | 1015.5 | |
| 20260830224436 | 0 | 198 | 1.0 | 2.0 | 0.00 | 0.00 | 0.00 | 1015.6 | |
| 20260830223932 | 0 | 198 | 1.0 | 2.0 | 0.00 | 0.00 | 0.00 | 1015.4 | |
| 20260830223429 | 0 | 198 | 1.0 | 2.0 | 0.00 | 0.00 | 0.00 | 1015.7 | |
| 20260830222928 | 0 | 221 | 0.0 | 2.0 | 0.00 | 0.00 | 0.00 | 1015.6 | |
| 20260830222423 | 0 | 144 | 3.0 | 7.0 | 0.00 | 0.00 | 0.00 | 1015.5 | |
| 20260830221919 | 0 | 165 | 2.0 | 3.0 | 0.00 | 0.00 | 0.00 | 1015.7 | |
| 20260830221415 | 0 | 165 | 2.0 | 3.0 | 0.00 | 0.00 | 0.00 | 1015.5 | |
| 20260830220911 | 0 | 165 | 2.0 | 3.0 | 0.00 | 0.00 | 0.00 | 1015.8 | |
| 20260830220410 | 0 | 230 | 0.0 | 2.0 | 0.00 | 0.00 | 0.00 | 1015.9 | |
| 20260830215908 | 0 | 217 | 1.0 | 2.0 | 0.00 | 0.00 | 0.00 | 1015.9 | |
| 20260830215403 | 0 | 235 | 0.0 | 2.0 | 0.00 | 0.00 | 0.00 | 1015.8 | |
| 20260830214857 | 0 | 225 | 0.0 | 3.0 | 0.00 | 0.00 | 0.00 | 1015.8 | |
| 20260830214353 | 0 | 207 | 2.0 | 4.0 | 0.00 | 0.00 | 0.00 | 1016.0 | |
| 20260830213847 | 0 | 230 | 2.0 | 3.0 | 0.00 | 0.00 | 0.00 | 1016.0 | |
| 20260830213342 | 0 | 230 | 2.0 | 3.0 | 0.00 | 0.00 | 0.00 | 1016.0 | |
| 20260830212838 | 0 | 171 | 3.0 | 6.0 | 0.00 | 0.00 | 0.00 | 1016.1 | |
| 20260830212334 | 0 | 150 | 3.0 | 6.0 | 0.00 | 0.00 | 0.00 | 1016.3 | |
| 20260830211833 | 0 | 271 | 3.0 | 5.0 | 0.00 | 0.00 | 0.00 | 1016.3 | |
| 20260830211327 | 0 | 193 | 3.0 | 6.0 | 0.00 | 0.00 | 0.00 | 1016.5 | |
| 20260830210823 | 0 | 193 | 3.0 | 6.0 | 0.00 | 0.00 | 0.00 | 1016.6 | |
| 20260830210321 | 0 | 169 | 2.0 | 4.0 | 0.00 | 0.00 | 0.00 | 1016.7 | |
| 20260830205820 | 0 | 153 | 2.0 | 3.0 | 0.00 | 0.00 | 0.00 | 1016.8 | |
| 20260830205314 | 0 | 246 | 0.0 | 3.0 | 0.00 | 0.00 | 0.00 | 1016.9 | |
| 20260830204809 | 0 | 246 | 0.0 | 3.0 | 0.00 | 0.00 | 0.00 | 1017.0 | |
| 20260830204308 | 0 | 184 | 2.0 | 3.0 | 0.00 | 0.00 | 0.00 | 1017.1 | |
| 20260830203804 | 0 | 224 | 2.0 | 4.0 | 0.00 | 0.00 | 0.00 | 1017.1 | |
| 20260830203300 | 0 | 166 | 2.0 | 7.0 | 0.00 | 0.00 | 0.00 | 1017.1 | |
| 20260830202759 | 0 | 149 | 3.0 | 6.0 | 0.00 | 0.00 | 0.00 | 1017.3 | |
| 20260830202254 | 0 | 220 | 0.0 | 2.0 | 0.00 | 0.00 | 0.00 | 1017.3 | |
| 20260830201749 | 0 | 218 | 3.0 | 3.0 | 0.00 | 0.00 | 0.00 | 1017.4 | |
| 20260830201244 | 0 | 181 | 1.0 | 3.0 | 0.00 | 0.00 | 0.00 | 1017.5 | |
| 20260830200739 | 0 | 181 | 1.0 | 3.0 | 0.00 | 0.00 | 0.00 | 1017.8 | |
| 20260830200238 | 0 | 181 | 1.0 | 3.0 | 0.00 | 0.00 | 0.00 | 1017.6 | |
| 20260830195734 | 0 | 220 | 3.0 | 3.0 | 0.00 | 0.00 | 0.00 | 1017.8 | |
| 20260830195232 | 0 | 251 | 4.0 | 4.0 | 0.00 | 0.00 | 0.00 | 1017.8 | |
| 20260830194731 | 0 | 159 | 2.0 | 5.0 | 0.00 | 0.00 | 0.00 | 1017.9 | |
| 20260830194225 | 0 | 239 | 2.0 | 3.0 | 0.00 | 0.00 | 0.00 | 1018.0 | |
| 20260830193720 | 0 | 239 | 2.0 | 3.0 | 0.00 | 0.00 | 0.00 | 1018.0 | |
| 20260830193214 | 0 | 192 | 3.0 | 6.0 | 0.00 | 0.00 | 0.00 | 1018.1 | |
| 20260830192710 | 0 | 181 | 0.0 | 5.0 | 0.00 | 0.00 | 0.00 | 1018.2 | |
| 20260830192205 | 0 | 181 | 0.0 | 5.0 | 0.00 | 0.00 | 0.00 | 1018.3 | |
| 20260830191701 | 0 | 127 | 2.0 | 3.0 | 0.00 | 0.00 | 0.00 | 1018.4 | |
| 20260830191155 | 0 | 227 | 2.0 | 2.0 | 0.00 | 0.00 | 0.00 | 1018.6 | |
| 20260830190651 | 0 | 242 | 1.0 | 4.0 | 0.00 | 0.00 | 0.00 | 1018.5 | |
| 20260830190146 | 0 | 294 | 3.0 | 4.0 | 0.00 | 0.00 | 0.00 | 1018.4 | |
| 20260830185644 | 0 | 227 | 0.0 | 6.0 | 0.00 | 0.00 | 0.00 | 1018.8 | |
| 20260830185140 | 0 | 170 | 3.0 | 5.0 | 0.00 | 0.00 | 0.00 | 1018.8 | |
| 20260830184639 | 0 | 235 | 1.0 | 3.0 | 0.00 | 0.00 | 0.00 | 1018.8 | |
| 20260830184134 | 0 | 290 | 0.0 | 2.0 | 0.00 | 0.00 | 0.00 | 1018.8 | |
| 20260830183634 | 0 | 279 | 3.0 | 4.0 | 0.00 | 0.00 | 0.00 | 1018.9 | |
| 20260830183129 | 0 | 244 | 4.0 | 5.0 | 0.00 | 0.00 | 0.00 | 1019.1 | |
| 20260830182624 | 0 | 244 | 4.0 | 5.0 | 0.00 | 0.00 | 0.00 | 1019.2 | |
| 20260830182120 | 0 | 244 | 4.0 | 5.0 | 0.00 | 0.00 | 0.00 | 1019.3 | |
| 20260830181616 | 0 | 240 | 1.0 | 3.0 | 0.00 | 0.00 | 0.00 | 1019.2 | |
| 20260830181116 | 0 | 159 | 3.0 | 5.0 | 0.00 | 0.00 | 0.00 | 1019.3 | |
| 20260830180615 | 0 | 260 | 2.0 | 3.0 | 0.00 | 0.00 | 0.00 | 1019.3 | |
| 20260830180110 | 0 | 253 | 1.0 | 2.0 | 0.00 | 0.00 | 0.00 | 1019.5 | |
| 20260830175608 | 0 | 201 | 2.0 | 3.0 | 0.00 | 0.00 | 0.00 | 1019.6 | |
| 20260830175104 | 0 | 201 | 2.0 | 3.0 | 0.00 | 0.00 | 0.00 | 1019.9 | |
| 20260830174559 | 0 | 271 | 2.0 | 4.0 | 0.00 | 0.00 | 0.00 | 1019.9 | |
| 20260830174054 | 0 | 193 | 3.0 | 4.0 | 0.00 | 0.00 | 0.00 | 1020.0 | |
| 20260830173549 | 0 | 193 | 3.0 | 4.0 | 0.00 | 0.00 | 0.00 | 1020.1 | |
| 20260830173044 | 0 | 156 | 2.0 | 3.0 | 0.00 | 0.00 | 0.00 | 1020.1 | |
| 20260830172542 | 0 | 156 | 2.0 | 3.0 | 0.00 | 0.00 | 0.00 | 1020.2 | |
| 20260830172037 | 0 | 156 | 2.0 | 3.0 | 0.00 | 0.00 | 0.00 | 1020.2 | |
| 20260830171533 | 0 | 183 | 2.0 | 5.0 | 0.00 | 0.00 | 0.00 | 1020.5 | |
| 20260830171032 | 0 | 183 | 2.0 | 5.0 | 0.00 | 0.00 | 0.00 | 1020.5 | |
| 20260830170527 | 0 | 298 | 1.0 | 2.0 | 0.00 | 0.00 | 0.00 | 1020.4 | |
| 20260830170026 | 0 | 298 | 1.0 | 2.0 | 0.00 | 0.00 | 0.00 | 1020.4 | |
| 20260830165521 | 0 | 209 | 3.0 | 5.0 | 0.00 | 0.00 | 0.00 | 1043.5 | |
| 20260830165017 | 0 | 209 | 3.0 | 5.0 | 0.00 | 0.00 | 0.00 | 1020.4 | |
| 20260830164513 | 0 | 209 | 3.0 | 5.0 | 0.00 | 0.00 | 0.00 | 1020.6 | |
| 20260830164009 | 0 | 218 | 2.0 | 5.0 | 0.00 | 0.00 | 0.00 | 1020.8 | |
| 20260830163506 | 0 | 218 | 2.0 | 5.0 | 0.00 | 0.00 | 0.00 | 1020.7 | |
| 20260830163005 | 0 | 147 | 5.0 | 6.0 | 0.00 | 0.00 | 0.00 | 1020.6 | |
| 20260830162501 | 0 | 147 | 5.0 | 6.0 | 0.00 | 0.00 | 0.00 | 1021.0 | |
| 20260830162001 | 0 | 196 | 3.0 | 3.0 | 0.00 | 0.00 | 0.00 | 1020.9 | |
| 20260830161455 | 0 | 196 | 3.0 | 3.0 | 0.00 | 0.00 | 0.00 | 1020.7 | |
| 20260830160950 | 0 | 196 | 3.0 | 3.0 | 0.00 | 0.00 | 0.00 | 1020.7 | |
| 20260830160447 | 0 | 218 | 2.0 | 2.0 | 0.00 | 0.00 | 0.00 | 1020.7 | |
| 20260830155941 | 0 | 224 | 2.0 | 4.0 | 0.00 | 0.00 | 0.00 | 1020.6 | |
| 20260830155438 | 0 | 224 | 2.0 | 4.0 | 0.00 | 0.00 | 0.00 | 1020.7 | |
| 20260830154933 | 0 | 224 | 2.0 | 4.0 | 0.00 | 0.00 | 0.00 | 1020.7 | |
| 20260830154428 | 0 | 224 | 2.0 | 4.0 | 0.00 | 0.00 | 0.00 | 1020.7 | |
| 20260830153925 | 0 | 224 | 2.0 | 4.0 | 0.00 | 0.00 | 0.00 | 1020.7 | |
| 20260830153420 | 0 | 224 | 2.0 | 4.0 | 0.00 | 0.00 | 0.00 | 1020.5 | |
| 20260830152919 | 0 | 286 | 2.0 | 3.0 | 0.00 | 0.00 | 0.00 | 1020.7 | |
| 20260830152414 | 0 | 224 | 2.0 | 2.0 | 0.00 | 0.00 | 0.00 | 1020.7 | |
| 20260830151908 | 0 | 204 | 0.0 | 4.0 | 0.00 | 0.00 | 0.00 | 1020.6 | |
| 20260830151408 | 0 | 153 | 3.0 | 7.0 | 0.00 | 0.00 | 0.00 | 1020.7 | |
| 20260830150903 | 0 | 217 | 1.0 | 3.0 | 0.00 | 0.00 | 0.00 | 1020.7 | |
| 20260830150403 | 0 | 226 | 2.0 | 3.0 | 0.00 | 0.00 | 0.00 | 1020.5 | |
| 20260830145856 | 0 | 259 | 0.0 | 2.0 | 0.00 | 0.00 | 0.00 | 1020.6 | |
| 20260830145352 | 0 | 233 | 2.0 | 3.0 | 0.00 | 0.00 | 0.00 | 1020.7 | |
| 20260830144847 | 0 | 220 | 2.0 | 3.0 | 0.00 | 0.00 | 0.00 | 1020.5 | |
| 20260830144343 | 0 | 178 | 1.0 | 3.0 | 0.00 | 0.00 | 0.00 | 1020.4 | |
| 20260830143838 | 0 | 208 | 0.0 | 3.0 | 0.00 | 0.00 | 0.00 | 1020.5 | |
| 20260830143338 | 0 | 248 | 5.0 | 6.0 | 0.00 | 0.00 | 0.00 | 1020.7 | |
| 20260830142832 | 0 | 210 | 2.0 | 5.0 | 0.00 | 0.00 | 0.00 | 1020.6 | |
| 20260830142327 | 0 | 226 | 1.0 | 4.0 | 0.00 | 0.00 | 0.00 | 1020.6 | |
| 20260830141822 | 0 | 180 | 2.0 | 3.0 | 0.00 | 0.00 | 0.00 | 1020.6 | |
| 20260830141317 | 0 | 201 | 2.0 | 2.0 | 0.00 | 0.00 | 0.00 | 1020.6 | |
| 20260830140812 | 0 | 280 | 1.0 | 3.0 | 0.00 | 0.00 | 0.00 | 1020.6 | |
| 20260830140307 | 0 | 228 | 1.0 | 3.0 | 0.00 | 0.00 | 0.00 | 1020.6 | |
| 20260830135801 | 0 | 201 | 1.0 | 2.0 | 0.00 | 0.00 | 0.00 | 1020.5 | |
| 20260830135257 | 0 | 217 | 2.0 | 3.0 | 0.00 | 0.00 | 0.00 | 1020.5 | |
| 20260830134753 | 0 | 245 | 3.0 | 5.0 | 0.00 | 0.00 | 0.00 | 1020.4 | |
| 20260830134252 | 0 | 238 | 2.0 | 4.0 | 0.00 | 0.00 | 0.00 | 1020.5 | |
| 20260830133748 | 0 | 213 | 1.0 | 2.0 | 0.00 | 0.00 | 0.00 | 1020.4 | |
| 20260830133244 | 0 | 213 | 1.0 | 3.0 | 0.00 | 0.00 | 0.00 | 1020.4 | |
| 20260830132739 | 0 | 246 | 2.0 | 3.0 | 0.00 | 0.00 | 0.00 | 1020.4 | |
| 20260830132235 | 0 | 161 | 1.0 | 2.0 | 0.00 | 0.00 | 0.00 | 1020.4 | |
| 20260830131734 | 0 | 208 | 2.0 | 3.0 | 0.00 | 0.00 | 0.00 | 1020.3 | |
| 20260830131229 | 0 | 236 | 1.0 | 1.0 | 0.00 | 0.00 | 0.00 | 1020.2 | |
| 20260830130724 | 0 | 232 | 0.0 | 3.0 | 0.00 | 0.00 | 0.00 | 1020.2 | |
| 20260830130224 | 0 | 212 | 0.0 | 3.0 | 0.00 | 0.00 | 0.00 | 1020.3 | |
| 20260830125718 | 0 | 157 | 0.0 | 0.0 | 0.00 | 0.00 | 0.00 | 1020.1 | |
| 20260830125213 | 0 | 62 | 0.0 | 0.0 | 0.00 | 0.00 | 0.00 | 1020.2 | |
| 20260830124711 | 0 | 174 | 0.0 | 0.0 | 0.00 | 0.00 | 0.00 | 1020.0 | |
| 20260830124206 | 0 | 141 | 0.0 | 1.0 | 0.00 | 0.00 | 0.00 | 1020.0 | |
| 20260830123703 | 0 | 117 | 0.0 | 0.0 | 0.00 | 0.00 | 0.00 | 1020.0 | |
| 20260830123159 | 0 | 62 | 0.0 | 0.0 | 0.00 | 0.00 | 0.00 | 1020.2 | |
| 20260830122656 | 0 | 62 | 0.0 | 0.0 | 0.00 | 0.00 | 0.00 | 1019.9 | |
| 20260830122151 | 0 | 62 | 0.0 | 0.0 | 0.00 | 0.00 | 0.00 | 1019.9 | |
| 20260830121647 | 0 | 62 | 0.0 | 0.0 | 0.00 | 0.00 | 0.00 | 1019.8 | |
| 20260830121146 | 0 | 235 | 0.0 | 0.0 | 0.00 | 0.00 | 0.00 | 1019.9 | |
| 20260830120641 | 0 | 235 | 0.0 | 0.0 | 0.00 | 0.00 | 0.00 | 1019.8 | |
| 20260830120138 | 0 | 217 | 0.0 | 1.0 | 0.00 | 0.00 | 0.00 | 1019.7 | |
| 20260830115633 | 0 | 217 | 0.0 | 1.0 | 0.00 | 0.00 | 0.00 | 1019.7 | |
| 20260830115129 | 0 | 205 | 0.0 | 0.0 | 0.00 | 0.00 | 0.00 | 1019.6 | |
| 20260830114626 | 0 | 243 | 0.0 | 0.0 | 0.00 | 0.00 | 0.00 | 1019.8 | |
| 20260830114125 | 0 | 235 | 0.0 | 0.0 | 0.00 | 0.00 | 0.00 | 1019.6 | |
| 20260830113620 | 0 | 249 | 0.0 | 0.0 | 0.00 | 0.00 | 0.00 | 1019.8 | |
| 20260830113115 | 0 | 224 | 0.0 | 0.0 | 0.00 | 0.00 | 0.00 | 1019.6 | |
| 20260830112612 | 0 | 224 | 0.0 | 0.0 | 0.00 | 0.00 | 0.00 | 1019.6 | |
| 20260830112108 | 0 | 205 | 0.0 | 1.0 | 0.00 | 0.00 | 0.00 | 1019.4 | |
| 20260830111603 | 0 | 207 | 0.0 | 1.0 | 0.00 | 0.00 | 0.00 | 1019.6 | |
| 20260830111059 | 0 | 235 | 0.0 | 1.0 | 0.00 | 0.00 | 0.00 | 1019.4 | |
| 20260830110558 | 0 | 205 | 0.0 | 0.0 | 0.00 | 0.00 | 0.00 | 1019.5 | |
| 20260830110054 | 0 | 205 | 0.0 | 0.0 | 0.00 | 0.00 | 0.00 | 1019.5 | |
| 20260830105549 | 0 | 217 | 0.0 | 0.0 | 0.00 | 0.00 | 0.00 | 1019.6 | |
| 20260830105045 | 0 | 104 | 0.0 | 0.0 | 0.00 | 0.00 | 0.00 | 1019.4 | |
| 20260830104542 | 0 | 104 | 0.0 | 0.0 | 0.00 | 0.00 | 0.00 | 1019.4 | |
| 20260830104037 | 0 | 173 | 1.0 | 2.0 | 0.00 | 0.00 | 0.00 | 1019.5 | |
| 20260830103532 | 0 | 173 | 1.0 | 2.0 | 0.00 | 0.00 | 0.00 | 1019.4 | |
| 20260830103031 | 0 | 217 | 0.0 | 1.0 | 0.00 | 0.00 | 0.00 | 1019.3 | |
| 20260830102531 | 0 | 214 | 0.0 | 1.0 | 0.00 | 0.00 | 0.00 | 1019.3 | |
| 20260830102027 | 0 | 218 | 0.0 | 2.0 | 0.00 | 0.00 | 0.00 | 1019.2 | |
| 20260830101522 | 0 | 240 | 0.0 | 1.0 | 0.00 | 0.00 | 0.00 | 1019.1 | |
| 20260830101021 | 0 | 238 | 1.0 | 2.0 | 0.00 | 0.00 | 0.00 | 1019.2 | |
| 20260830100516 | 0 | 227 | 0.0 | 1.0 | 0.00 | 0.00 | 0.00 | 1019.1 | |
| 20260830100015 | 0 | 228 | 0.0 | 1.0 | 0.00 | 0.00 | 0.00 | 1019.3 | |
| 20260830095510 | 0 | 228 | 0.0 | 1.0 | 0.00 | 0.00 | 0.00 | 1019.2 | |
| 20260830095006 | 0 | 218 | 0.0 | 2.0 | 0.00 | 0.00 | 0.00 | 1019.1 | |
| 20260830094502 | 0 | 238 | 2.0 | 2.0 | 0.00 | 0.00 | 0.00 | 1019.2 | |
| 20260830093957 | 0 | 238 | 2.0 | 2.0 | 0.00 | 0.00 | 0.00 | 1019.1 | |
| 20260830093452 | 0 | 229 | 0.0 | 1.0 | 0.00 | 0.00 | 0.00 | 1019.4 | |
| 20260830092948 | 0 | 260 | 0.0 | 2.0 | 0.00 | 0.00 | 0.00 | 1019.1 | |
| 20260830092444 | 0 | 253 | 0.0 | 2.0 | 0.00 | 0.00 | 0.00 | 1019.1 | |
| 20260830091941 | 0 | 229 | 0.0 | 2.0 | 0.00 | 0.00 | 0.00 | 1019.0 | |
| 20260830091440 | 0 | 229 | 1.0 | 2.0 | 0.00 | 0.00 | 0.00 | 1019.0 | |
| 20260830090939 | 0 | 219 | 1.0 | 2.0 | 0.00 | 0.00 | 0.00 | 1019.1 | |
| 20260830090435 | 0 | 219 | 1.0 | 2.0 | 0.00 | 0.00 | 0.00 | 1019.2 | |
| 20260830085930 | 0 | 224 | 0.0 | 2.0 | 0.00 | 0.00 | 0.00 | 1019.2 | |
| 20260830085424 | 0 | 229 | 0.0 | 1.0 | 0.00 | 0.00 | 0.00 | 1019.2 | |
| 20260830084920 | 0 | 221 | 1.0 | 1.0 | 0.00 | 0.00 | 0.00 | 1019.2 | |
| 20260830084415 | 0 | 221 | 1.0 | 1.0 | 0.00 | 0.00 | 0.00 | 1019.2 | |
| 20260830083910 | 0 | 224 | 1.0 | 1.0 | 0.00 | 0.00 | 0.00 | 1019.3 | |
| 20260830083406 | 0 | 185 | 2.0 | 3.0 | 0.00 | 0.00 | 0.00 | 1019.2 | |
| 20260830082906 | 0 | 218 | 0.0 | 0.0 | 0.00 | 0.00 | 0.00 | 1019.0 | |
| 20260830082401 | 0 | 239 | 1.0 | 1.0 | 0.00 | 0.00 | 0.00 | 1019.3 | |
| 20260830081856 | 0 | 331 | 0.0 | 2.0 | 0.00 | 0.00 | 0.00 | 1019.2 | |
| 20260830081351 | 0 | 139 | 3.0 | 3.0 | 0.00 | 0.00 | 0.00 | 1019.3 | |
| 20260830080850 | 0 | 139 | 3.0 | 3.0 | 0.00 | 0.00 | 0.00 | 1019.3 | |
| 20260830080347 | 0 | 183 | 0.0 | 2.0 | 0.00 | 0.00 | 0.00 | 1019.3 | |
| 20260830075845 | 0 | 244 | 1.0 | 2.0 | 0.00 | 0.00 | 0.00 | 1019.3 | |
| 20260830075341 | 0 | 246 | 0.0 | 2.0 | 0.00 | 0.00 | 0.00 | 1019.3 | |
| 20260830074836 | 0 | 238 | 0.0 | 1.0 | 0.00 | 0.00 | 0.00 | 1019.3 | |
| 20260830074332 | 0 | 220 | 0.0 | 1.0 | 0.00 | 0.00 | 0.00 | 1019.4 | |
| 20260830073828 | 0 | 157 | 2.0 | 3.0 | 0.00 | 0.00 | 0.00 | 1019.4 | |
| 20260830073323 | 0 | 206 | 1.0 | 2.0 | 0.00 | 0.00 | 0.00 | 1019.5 | |
| 20260830072818 | 0 | 209 | 1.0 | 2.0 | 0.00 | 0.00 | 0.00 | 1019.5 | |
| 20260830072315 | 0 | 214 | 0.0 | 2.0 | 0.00 | 0.00 | 0.00 | 1019.5 | |
| 20260830071814 | 0 | 233 | 0.0 | 2.0 | 0.00 | 0.00 | 0.00 | 1019.6 | |
| 20260830071308 | 0 | 180 | 2.0 | 5.0 | 0.00 | 0.00 | 0.00 | 1019.5 | |
| 20260830070807 | 0 | 193 | 1.0 | 3.0 | 0.00 | 0.00 | 0.00 | 1019.3 | |
| 20260830070302 | 0 | 236 | 0.0 | 1.0 | 0.00 | 0.00 | 0.00 | 1019.4 | |
| 20260830065801 | 0 | 206 | 2.0 | 2.0 | 0.00 | 0.00 | 0.00 | 1019.5 | |
| 20260830065256 | 0 | 227 | 0.0 | 1.0 | 0.00 | 0.00 | 0.00 | 1019.6 | |
| 20260830064754 | 0 | 226 | 1.0 | 2.0 | 0.00 | 0.00 | 0.00 | 1019.5 | |
| 20260830064250 | 0 | 220 | 1.0 | 1.0 | 0.00 | 0.00 | 0.00 | 1019.2 | |
| 20260830063749 | 0 | 207 | 0.0 | 1.0 | 0.00 | 0.00 | 0.00 | 1019.5 | |
| 20260830063249 | 0 | 207 | 0.0 | 1.0 | 0.00 | 0.00 | 0.00 | 1019.5 | |
| 20260830062744 | 0 | 204 | 2.0 | 3.0 | 0.00 | 0.00 | 0.00 | 1019.4 | |
| 20260830062244 | 0 | 202 | 0.0 | 1.0 | 0.00 | 0.00 | 0.00 | 1019.4 | |
| 20260830061738 | 0 | 238 | 1.0 | 2.0 | 0.00 | 0.00 | 0.00 | 1019.4 | |
| 20260830061234 | 0 | 218 | 0.0 | 3.0 | 0.00 | 0.00 | 0.00 | 1019.4 | |
| 20260830060731 | 0 | 227 | 1.0 | 2.0 | 0.00 | 0.00 | 0.00 | 1019.4 | |
| 20260830060227 | 0 | 227 | 1.0 | 3.0 | 0.00 | 0.00 | 0.00 | 1019.3 | |
| 20260830055721 | 0 | 223 | 0.0 | 1.0 | 0.00 | 0.00 | 0.00 | 1019.4 | |
| 20260830055218 | 0 | 211 | 1.0 | 2.0 | 0.00 | 0.00 | 0.00 | 1019.4 | |
| 20260830054712 | 0 | 245 | 0.0 | 3.0 | 0.00 | 0.00 | 0.00 | 1019.3 | |
| 20260830054208 | 0 | 165 | 1.0 | 1.0 | 0.00 | 0.00 | 0.00 | 1019.2 | |
| 20260830053704 | 0 | 210 | 1.0 | 1.0 | 0.00 | 0.00 | 0.00 | 1019.1 | |
| 20260830053204 | 0 | 144 | 2.0 | 3.0 | 0.00 | 0.00 | 0.00 | 1019.2 | |
| 20260830052658 | 0 | 160 | 0.0 | 2.0 | 0.00 | 0.00 | 0.00 | 1019.3 | |
| 20260830052154 | 0 | 201 | 0.0 | 1.0 | 0.00 | 0.00 | 0.00 | 1019.3 | |
| 20260830051653 | 0 | 186 | 0.0 | 2.0 | 0.00 | 0.00 | 0.00 | 1019.4 | |
| 20260830051149 | 0 | 163 | 1.0 | 1.0 | 0.00 | 0.00 | 0.00 | 1019.3 | |
| 20260830050648 | 0 | 230 | 0.0 | 0.0 | 0.00 | 0.00 | 0.00 | 1019.1 | |
| 20260830050143 | 0 | 173 | 0.0 | 0.0 | 0.00 | 0.00 | 0.00 | 1019.3 | |
| 20260830045641 | 0 | 173 | 0.0 | 0.0 | 0.00 | 0.00 | 0.00 | 1019.2 | |
| 20260830045137 | 0 | 163 | 0.0 | 1.0 | 0.00 | 0.00 | 0.00 | 1019.2 | |
| 20260830044636 | 0 | 202 | 0.0 | 3.0 | 0.00 | 0.00 | 0.00 | 1019.1 | |
| 20260830044132 | 0 | 206 | 1.0 | 2.0 | 0.00 | 0.00 | 0.00 | 1019.1 | |
| 20260830043627 | 0 | 190 | 1.0 | 1.0 | 0.00 | 0.00 | 0.00 | 1019.3 | |
| 20260830043126 | 0 | 197 | 2.0 | 4.0 | 0.00 | 0.00 | 0.00 | 1019.2 | |
| 20260830042624 | 0 | 211 | 1.0 | 2.0 | 0.00 | 0.00 | 0.00 | 1019.1 | |
| 20260830042119 | 0 | 166 | 2.0 | 3.0 | 0.00 | 0.00 | 0.00 | 1019.2 | |
| 20260830041618 | 0 | 219 | 2.0 | 3.0 | 0.00 | 0.00 | 0.00 | 1019.4 | |
| 20260830041117 | 0 | 129 | 2.0 | 3.0 | 0.00 | 0.00 | 0.00 | 1019.4 | |
| 20260830040613 | 0 | 129 | 2.0 | 3.0 | 0.00 | 0.00 | 0.00 | 1019.3 | |
| 20260830040109 | 0 | 129 | 2.0 | 3.0 | 0.00 | 0.00 | 0.00 | 1019.3 | |
| 20260830035606 | 0 | 129 | 2.0 | 3.0 | 0.00 | 0.00 | 0.00 | 1019.1 | |
| 20260830035102 | 0 | 166 | 2.0 | 3.0 | 0.00 | 0.00 | 0.00 | 1019.1 | |
| 20260830034557 | 0 | 144 | 2.0 | 2.0 | 0.00 | 0.00 | 0.00 | 1019.0 | |
| 20260830034056 | 0 | 144 | 2.0 | 2.0 | 0.00 | 0.00 | 0.00 | 1019.1 |